ONEWEB-0398

operational
NORAD ID: 50478 Int'l Des: 2021-132 Owner: ONEWEBN Country: UK Constellation: oneweb
LEOCIRCULARPOLARONEWEB_TYPE

About ONEWEB-0398

Description loading...

Live Position

Loading 3D Globe...

Upcoming Passes

Altitude History

Altitude vs Time

uPlot chart will show altitude changes over time

Two-Line Element Set

1 50478U 21132K 25250.22640274 -.00000100 00000-0 -31748-3 0 9993
2 50478 87.8778 77.4235 0001535 102.7843 257.3457 13.11415298178529
Epoch: Sep 7, 2025 • Age: 15 hours

Current Status

Altitude 1227.2 km
Velocity 7.25 km/s
Sub-Earth Point 60.71°N, 148.04°E
Launch Date Dec 27, 2021
Age 3.6 years
Type internet

Technical Details

Classification Payload
Mass 148.00 kg
Dry Mass 140.00 kg
Total Mass 148.00 kg
Length 1.30 m
Diameter 1.00 m
Span 5.00 m
Shape Trapezoid+2 pan
Manufacturer ONEWUS
Bus Type ARROW
Phase Status In Orbit
Owner/State ONEWEBN/UK

Large Constellations

Loading constellations...